Time,TemperatureF,DewpointF,PressureIn,WindDirection,WindDirectionDegrees,WindSpeedMPH,WindSpeedGustMPH,Humidity,HourlyPrecipIn,Conditions,Clouds,dailyrainin,SolarRadiationWatts/m^2,SoftwareType,DateUTC
2013-10-25 00:10:00,30.0,28.0,-100.00,NW,325,4.0,8.0,94,0.00,,,0.00,0.000000,,2013-10-25 08:10:00,
2013-10-25 00:21:00,30.0,28.0,-100.00,NW,325,4.0,8.0,94,0.00,,,0.00,0.000000,,2013-10-25 08:21:00,
2013-10-25 00:31:00,30.0,28.0,-100.00,NW,325,4.0,8.0,94,0.00,,,0.00,0.000000,,2013-10-25 08:31:00,
2013-10-25 00:51:00,30.0,29.0,-100.00,NNW,334,6.0,10.0,95,0.00,,,0.00,0.000000,,2013-10-25 08:51:00,
2013-10-25 01:01:00,30.0,29.0,-100.00,NNW,334,6.0,10.0,95,0.00,,,0.00,0.000000,,2013-10-25 09:01:00,
2013-10-25 01:11:00,30.0,29.0,-100.00,NNW,334,6.0,10.0,95,0.00,,,0.00,0.000000,,2013-10-25 09:11:00,
2013-10-25 01:21:00,30.0,29.0,-100.00,NNW,334,6.0,10.0,95,0.00,,,0.00,0.000000,,2013-10-25 09:21:00,
2013-10-25 01:32:00,30.0,29.0,-100.00,NNW,334,6.0,10.0,95,0.00,,,0.00,0.000000,,2013-10-25 09:32:00,
2013-10-25 01:52:00,32.0,27.0,-100.00,NW,319,6.0,9.0,82,0.00,,,0.00,0.000000,,2013-10-25 09:52:00,
2013-10-25 02:01:00,32.0,27.0,-100.00,NW,319,6.0,9.0,82,0.00,,,0.00,0.000000,,2013-10-25 10:01:00,
2013-10-25 02:11:00,32.0,27.0,-100.00,NW,319,6.0,9.0,82,0.00,,,0.00,0.000000,,2013-10-25 10:11:00,
2013-10-25 02:21:00,32.0,27.0,-100.00,NW,319,6.0,9.0,82,0.00,,,0.00,0.000000,,2013-10-25 10:21:00,
2013-10-25 02:32:00,32.0,27.0,-100.00,NW,319,6.0,9.0,82,0.00,,,0.00,0.000000,,2013-10-25 10:32:00,
2013-10-25 02:52:00,31.0,29.0,-100.00,NW,322,5.0,9.0,92,0.00,,,0.00,0.000000,,2013-10-25 10:52:00,
2013-10-25 03:02:00,31.0,29.0,-100.00,NW,322,5.0,9.0,92,0.00,,,0.00,0.000000,,2013-10-25 11:02:00,
2013-10-25 03:11:00,31.0,29.0,-100.00,NW,322,5.0,9.0,92,0.00,,,0.00,0.000000,,2013-10-25 11:11:00,
2013-10-25 03:21:00,31.0,29.0,-100.00,NW,322,5.0,9.0,92,0.00,,,0.00,0.000000,,2013-10-25 11:21:00,
2013-10-25 03:32:00,31.0,29.0,-100.00,NW,322,5.0,9.0,92,0.00,,,0.00,0.000000,,2013-10-25 11:32:00,
2013-10-25 03:51:00,31.0,31.0,-100.00,NW,324,5.0,10.0,100,0.00,,,0.00,0.000000,,2013-10-25 11:51:00,
2013-10-25 04:01:00,31.0,31.0,-100.00,NW,324,5.0,10.0,100,0.00,,,0.00,0.000000,,2013-10-25 12:01:00,
2013-10-25 04:10:00,31.0,31.0,-100.00,NW,324,5.0,10.0,100,0.00,,,0.00,0.000000,,2013-10-25 12:10:00,
2013-10-25 04:21:00,31.0,31.0,-100.00,NW,324,5.0,10.0,100,0.00,,,0.00,0.000000,,2013-10-25 12:21:00,
2013-10-25 04:31:00,31.0,31.0,-100.00,NW,324,5.0,10.0,100,0.00,,,0.00,0.000000,,2013-10-25 12:31:00,
2013-10-25 04:51:00,31.0,31.0,-100.00,NNE,25,3.0,8.0,100,0.00,,,-99.99,0.000000,,2013-10-25 12:51:00,
2013-10-25 05:01:00,31.0,31.0,-100.00,NNE,25,3.0,8.0,100,0.00,,,-99.99,0.000000,,2013-10-25 13:01:00,
2013-10-25 05:11:00,31.0,31.0,-100.00,NNE,25,3.0,8.0,100,0.00,,,-99.99,0.000000,,2013-10-25 13:11:00,
2013-10-25 05:21:00,31.0,31.0,-100.00,NNE,25,3.0,8.0,100,0.00,,,-99.99,0.000000,,2013-10-25 13:21:00,
2013-10-25 05:32:00,31.0,31.0,-100.00,NNE,25,3.0,8.0,100,0.00,,,-99.99,0.000000,,2013-10-25 13:32:00,
2013-10-25 05:52:00,32.0,31.0,-100.00,North,352,9.0,16.0,97,0.00,,,0.00,0.000000,,2013-10-25 13:52:00,
2013-10-25 06:02:00,32.0,31.0,-100.00,North,352,9.0,16.0,97,0.00,,,0.00,0.000000,,2013-10-25 14:02:00,
2013-10-25 06:11:00,32.0,31.0,-100.00,North,352,9.0,16.0,97,0.00,,,0.00,0.000000,,2013-10-25 14:11:00,
2013-10-25 06:22:00,32.0,31.0,-100.00,North,352,9.0,16.0,97,0.00,,,0.00,0.000000,,2013-10-25 14:22:00,
2013-10-25 06:31:00,32.0,31.0,-100.00,North,352,9.0,16.0,97,0.00,,,0.00,0.000000,,2013-10-25 14:31:00,
2013-10-25 06:33:00,31.0,31.0,-100.00,NNW,341,5.0,11.0,98,0.00,,,0.00,0.000000,,2013-10-25 14:33:00,
2013-10-25 06:52:00,31.0,31.0,-100.00,NNW,341,5.0,11.0,98,0.00,,,0.00,0.000000,,2013-10-25 14:52:00,
2013-10-25 07:01:00,31.0,31.0,-100.00,NNW,341,5.0,11.0,98,0.00,,,0.00,0.000000,,2013-10-25 15:01:00,
2013-10-25 07:11:00,31.0,31.0,-100.00,NNW,341,5.0,11.0,98,0.00,,,0.00,0.000000,,2013-10-25 15:11:00,
2013-10-25 07:21:00,31.0,31.0,-100.00,NNW,341,5.0,11.0,98,0.00,,,0.00,0.000000,,2013-10-25 15:21:00,
2013-10-25 07:33:00,31.0,31.0,-100.00,North,2,3.0,6.0,100,0.00,,,0.00,0.000000,,2013-10-25 15:33:00,
2013-10-25 07:53:00,31.0,31.0,-100.00,North,2,3.0,6.0,100,0.00,,,0.00,0.000000,,2013-10-25 15:53:00,
2013-10-25 08:03:00,31.0,31.0,-100.00,North,2,3.0,6.0,100,0.00,,,0.00,0.000000,,2013-10-25 16:03:00,
2013-10-25 08:13:00,31.0,31.0,-100.00,North,2,3.0,6.0,100,0.00,,,0.00,0.000000,,2013-10-25 16:13:00,
2013-10-25 08:23:00,31.0,31.0,-100.00,North,2,3.0,6.0,100,0.00,,,0.00,0.000000,,2013-10-25 16:23:00,
2013-10-25 08:33:00,31.0,31.0,-100.00,NNW,345,2.0,4.0,100,0.00,,,0.00,0.000000,,2013-10-25 16:33:00,
2013-10-25 08:53:00,31.0,31.0,-100.00,NNW,345,2.0,4.0,100,0.00,,,0.00,0.000000,,2013-10-25 16:53:00,
2013-10-25 09:03:00,31.0,31.0,-100.00,NNW,345,2.0,4.0,100,0.00,,,0.00,0.000000,,2013-10-25 17:03:00,
2013-10-25 09:13:00,31.0,31.0,-100.00,NNW,345,2.0,4.0,100,0.00,,,0.00,0.000000,,2013-10-25 17:13:00,
2013-10-25 09:22:00,31.0,31.0,-100.00,NNW,345,2.0,4.0,100,0.00,,,0.00,0.000000,,2013-10-25 17:22:00,
2013-10-25 09:52:00,31.0,31.0,-100.00,NNW,334,3.0,9.0,100,0.00,,,0.00,0.000000,,2013-10-25 17:52:00,
2013-10-25 10:02:00,31.0,31.0,-100.00,NNW,334,3.0,9.0,100,0.00,,,0.00,0.000000,,2013-10-25 18:02:00,
2013-10-25 10:12:00,31.0,31.0,-100.00,NNW,334,3.0,9.0,100,0.00,,,0.00,0.000000,,2013-10-25 18:12:00,
2013-10-25 10:21:00,31.0,31.0,-100.00,NNW,334,3.0,9.0,100,0.00,,,0.00,0.000000,,2013-10-25 18:21:00,
2013-10-25 10:32:00,31.0,31.0,-100.00,NNW,334,3.0,9.0,100,0.00,,,0.00,0.000000,,2013-10-25 18:32:00,
2013-10-25 10:52:00,32.0,32.0,-100.00,NNW,338,2.0,4.0,100,0.00,,,0.00,4.000000,,2013-10-25 18:52:00,
2013-10-25 11:02:00,32.0,32.0,-100.00,NNW,338,2.0,4.0,100,0.00,,,0.00,4.000000,,2013-10-25 19:02:00,
2013-10-25 11:11:00,32.0,32.0,-100.00,NNW,338,2.0,4.0,100,0.00,,,0.00,4.000000,,2013-10-25 19:11:00,
2013-10-25 11:22:00,32.0,32.0,-100.00,NNW,338,2.0,4.0,100,0.00,,,0.00,4.000000,,2013-10-25 19:22:00,
2013-10-25 11:32:00,32.0,32.0,-100.00,NNW,338,2.0,4.0,100,0.00,,,0.00,4.000000,,2013-10-25 19:32:00,
2013-10-25 11:52:00,32.0,32.0,-100.00,NNE,27,2.0,5.0,100,0.00,,,-99.99,12.000000,,2013-10-25 19:52:00,
2013-10-25 12:02:00,32.0,32.0,-100.00,NNE,27,2.0,5.0,100,0.00,,,-99.99,12.000000,,2013-10-25 20:02:00,
2013-10-25 12:12:00,32.0,32.0,-100.00,NNE,27,2.0,5.0,100,0.00,,,-99.99,12.000000,,2013-10-25 20:12:00,
2013-10-25 12:22:00,32.0,32.0,-100.00,NNE,27,2.0,5.0,100,0.00,,,-99.99,12.000000,,2013-10-25 20:22:00,
2013-10-25 12:32:00,32.0,32.0,-100.00,NNE,27,2.0,5.0,100,0.00,,,-99.99,12.000000,,2013-10-25 20:32:00,
2013-10-25 12:33:00,33.0,33.0,-100.00,NNE,15,6.0,9.0,100,0.00,,,-99.99,22.000000,,2013-10-25 20:33:00,
2013-10-25 12:52:00,33.0,33.0,-100.00,NNE,15,6.0,9.0,100,0.00,,,-99.99,22.000000,,2013-10-25 20:52:00,
2013-10-25 13:02:00,33.0,33.0,-100.00,NNE,15,6.0,9.0,100,0.00,,,-99.99,22.000000,,2013-10-25 21:02:00,
2013-10-25 13:11:00,33.0,33.0,-100.00,NNE,15,6.0,9.0,100,0.00,,,-99.99,22.000000,,2013-10-25 21:11:00,
2013-10-25 13:21:00,33.0,33.0,-100.00,NNE,15,6.0,9.0,100,0.00,,,-99.99,22.000000,,2013-10-25 21:21:00,
2013-10-25 13:33:00,35.0,34.0,-100.00,North,7,3.0,6.0,98,0.02,,,0.00,36.000000,,2013-10-25 21:33:00,
2013-10-25 13:54:00,35.0,34.0,-100.00,North,7,3.0,6.0,98,0.02,,,0.00,36.000000,,2013-10-25 21:54:00,
2013-10-25 14:04:00,35.0,34.0,-100.00,North,7,3.0,6.0,98,0.02,,,0.00,36.000000,,2013-10-25 22:04:00,
2013-10-25 14:13:00,35.0,34.0,-100.00,North,7,3.0,6.0,98,0.02,,,0.00,36.000000,,2013-10-25 22:13:00,
2013-10-25 14:23:00,35.0,34.0,-100.00,North,7,3.0,6.0,98,0.02,,,0.00,36.000000,,2013-10-25 22:23:00,
2013-10-25 14:33:00,34.0,33.0,-100.00,NW,326,2.0,5.0,97,0.01,,,0.01,40.000000,,2013-10-25 22:33:00,
2013-10-25 14:52:00,34.0,33.0,-100.00,NW,326,2.0,5.0,97,0.01,,,0.01,40.000000,,2013-10-25 22:52:00,
2013-10-25 15:03:00,34.0,33.0,-100.00,NW,326,2.0,5.0,97,0.01,,,0.01,40.000000,,2013-10-25 23:03:00,
2013-10-25 15:12:00,34.0,33.0,-100.00,NW,326,2.0,5.0,97,0.01,,,0.01,40.000000,,2013-10-25 23:12:00,
2013-10-25 15:22:00,34.0,33.0,-100.00,NW,326,2.0,5.0,97,0.01,,,0.01,40.000000,,2013-10-25 23:22:00,
2013-10-25 15:52:00,34.0,34.0,-100.00,North,356,2.0,5.0,98,0.02,,,0.05,41.000000,,2013-10-25 23:52:00,
2013-10-25 16:02:00,34.0,34.0,-100.00,North,356,2.0,5.0,98,0.02,,,0.05,41.000000,,2013-10-26 00:02:00,
2013-10-25 16:11:00,34.0,34.0,-100.00,North,356,2.0,5.0,98,0.02,,,0.05,41.000000,,2013-10-26 00:11:00,
2013-10-25 16:21:00,34.0,34.0,-100.00,North,356,2.0,5.0,98,0.02,,,0.05,41.000000,,2013-10-26 00:21:00,
2013-10-25 16:32:00,34.0,34.0,-100.00,North,356,2.0,5.0,98,0.02,,,0.05,41.000000,,2013-10-26 00:32:00,
2013-10-25 16:52:00,34.0,34.0,-100.00,North,4,1.0,3.0,98,0.01,,,0.06,25.000000,,2013-10-26 00:52:00,
2013-10-25 17:01:00,34.0,34.0,-100.00,North,4,1.0,3.0,98,0.01,,,0.06,25.000000,,2013-10-26 01:01:00,
2013-10-25 17:12:00,34.0,34.0,-100.00,North,4,1.0,3.0,98,0.01,,,0.06,25.000000,,2013-10-26 01:12:00,
2013-10-25 17:21:00,34.0,34.0,-100.00,North,4,1.0,3.0,98,0.01,,,0.06,25.000000,,2013-10-26 01:21:00,
2013-10-25 17:32:00,34.0,34.0,-100.00,North,4,1.0,3.0,98,0.01,,,0.06,25.000000,,2013-10-26 01:32:00,
2013-10-25 17:52:00,34.0,34.0,-100.00,NW,320,2.0,6.0,99,-99.99,,,0.04,13.000000,,2013-10-26 01:52:00,
2013-10-25 18:02:00,34.0,34.0,-100.00,NW,320,2.0,6.0,99,-99.99,,,0.04,13.000000,,2013-10-26 02:02:00,
2013-10-25 18:12:00,34.0,34.0,-100.00,NW,320,2.0,6.0,99,-99.99,,,0.04,13.000000,,2013-10-26 02:12:00,
2013-10-25 18:22:00,34.0,34.0,-100.00,NW,320,2.0,6.0,99,-99.99,,,0.04,13.000000,,2013-10-26 02:22:00,
2013-10-25 18:32:00,34.0,34.0,-100.00,NW,320,2.0,6.0,99,-99.99,,,0.04,13.000000,,2013-10-26 02:32:00,
2013-10-25 18:33:00,34.0,34.0,-100.00,NNW,335,2.0,4.0,98,-99.99,,,0.01,5.000000,,2013-10-26 02:33:00,
2013-10-25 18:52:00,34.0,34.0,-100.00,NNW,335,2.0,4.0,98,-99.99,,,0.01,5.000000,,2013-10-26 02:52:00,
2013-10-25 19:02:00,34.0,34.0,-100.00,NNW,335,2.0,4.0,98,-99.99,,,0.01,5.000000,,2013-10-26 03:02:00,
2013-10-25 19:12:00,34.0,34.0,-100.00,NNW,335,2.0,4.0,98,-99.99,,,0.01,5.000000,,2013-10-26 03:12:00,
2013-10-25 19:21:00,34.0,34.0,-100.00,NNW,335,2.0,4.0,98,-99.99,,,0.01,5.000000,,2013-10-26 03:21:00,
2013-10-25 19:33:00,34.0,34.0,-100.00,NW,311,2.0,5.0,99,0.00,,,0.01,0.000000,,2013-10-26 03:33:00,
2013-10-25 19:54:00,34.0,34.0,-100.00,NW,311,2.0,5.0,99,0.00,,,0.01,0.000000,,2013-10-26 03:54:00,
2013-10-25 20:04:00,34.0,34.0,-100.00,NW,311,2.0,5.0,99,0.00,,,0.01,0.000000,,2013-10-26 04:04:00,
2013-10-25 20:14:00,34.0,34.0,-100.00,NW,311,2.0,5.0,99,0.00,,,0.01,0.000000,,2013-10-26 04:14:00,
2013-10-25 20:24:00,34.0,34.0,-100.00,NW,311,2.0,5.0,99,0.00,,,0.01,0.000000,,2013-10-26 04:24:00,
2013-10-25 20:33:00,33.0,33.0,-100.00,NW,318,2.0,4.0,100,0.00,,,0.01,0.000000,,2013-10-26 04:33:00,
2013-10-25 21:13:00,33.0,33.0,-100.00,NW,318,2.0,4.0,100,0.00,,,0.01,0.000000,,2013-10-26 05:13:00,
2013-10-25 21:23:00,33.0,33.0,-100.00,NW,318,2.0,4.0,100,0.00,,,0.01,0.000000,,2013-10-26 05:23:00,
2013-10-25 21:52:00,33.0,33.0,-100.00,NNE,25,3.0,6.0,100,0.00,,,0.01,0.000000,,2013-10-26 05:52:00,
2013-10-25 22:02:00,33.0,33.0,-100.00,NNE,25,3.0,6.0,100,0.00,,,0.01,0.000000,,2013-10-26 06:02:00,
2013-10-25 22:12:00,33.0,33.0,-100.00,NNE,25,3.0,6.0,100,0.00,,,0.01,0.000000,,2013-10-26 06:12:00,
2013-10-25 22:22:00,33.0,33.0,-100.00,NNE,25,3.0,6.0,100,0.00,,,0.01,0.000000,,2013-10-26 06:22:00,
2013-10-25 22:32:00,33.0,33.0,-100.00,NNE,25,3.0,6.0,100,0.00,,,0.01,0.000000,,2013-10-26 06:32:00,
2013-10-25 22:52:00,32.0,32.0,-100.00,North,3,2.0,4.0,100,-99.99,,,0.00,0.000000,,2013-10-26 06:52:00,
2013-10-25 23:02:00,32.0,32.0,-100.00,North,3,2.0,4.0,100,-99.99,,,0.00,0.000000,,2013-10-26 07:02:00,
2013-10-25 23:11:00,32.0,32.0,-100.00,North,3,2.0,4.0,100,-99.99,,,0.00,0.000000,,2013-10-26 07:11:00,
2013-10-25 23:21:00,32.0,32.0,-100.00,North,3,2.0,4.0,100,-99.99,,,0.00,0.000000,,2013-10-26 07:21:00,
2013-10-25 23:32:00,32.0,32.0,-100.00,North,3,2.0,4.0,100,-99.99,,,0.00,0.000000,,2013-10-26 07:32:00,